Погода в Алче

Россия / Астраханская область     46°34′40″N   48°19′52″E
темп.,
°C
ветер,
м/с
пор.,
м/с
влажн.,
%
обл.,
%
осадки,
мм/ч
давл.,
гПа
погр.,
м
24 июля, сб
сб2401:00+22сз338395 1.3 100577
04:00+22ссв248385 3.2 100693
07:00+23с36750 0.7 1008337
10:00+29ссв57350 0.7 10091549
13:00+31с562646 0.0 10092790
16:00+32ссз452415 0.0 10093075
19:00+30сз562833 0.0 1010631
22:00+26с4733100 0.0 1012112
25 июля, вс
вс2501:00+24всв223215 0.0 101317
04:00+22з00350 0.0 101411
07:00+25ссз34350 0.0 1015138
10:00+31ссв442526 0.0 10161767
13:00+33ссв54200 0.0 10162814
16:00+34ссв54190 0.0 10152938
19:00+32ссв44220 0.0 10161938
22:00+26ссв48330 0.0 1017124
26 июля, пн
пн2601:00+25ссв411340 0.0 1017204
04:00+24ссв47375 0.0 1018111
07:00+26св49340 0.0 1019332
10:00+31св66220 0.0 10191932
13:00+33св66180 0.0 10182315
16:00+34св66160 0.0 10172473
19:00+32св661894 0.0 10171919
22:00+26ссв5122577 0.0 1018255
27 июля, вт
вт2701:00+26св6132490 0.0 1018429
04:00+24св6132615 0.0 1018365
07:00+25всв5102625 0.0 1018382
10:00+30всв6917100 0.0 10181907
13:00+31св7817100 0.0 10172100
16:00+31св6716100 0.0 10162476
19:00+31ссв5717100 0.0 10151881
22:00+26с41024100 0.0 1016208
28 июля, ср
ср2801:00+24ссв4626100 0.0 101683
04:00+23ссв3329100 0.0 101636
07:00+25с2529100 0.0 1016164
10:00+28ссв3322100 0.0 10161125
13:00+32ссв4318100 0.0 10153337
16:00+32ссв54161 0.0 10143428
19:00+31ссв35184 0.0 10143236
22:00+27ссв362594 0.0 1014179